Regional Weather Roundup
Issued by NWS

Home | Current Version | Previous Version | Text Only | Print | Product List | Glossary On
Versions: 1 2 3 4 5 6 7 8 9 10 11 12 13 14 15 16 17 18 19 20 21 22 23 24 25 26 27 28 29 30 31 32 33 34 35 36 37 38 39 40 41 42 43 44 45 46 47 48 49 50
000
ASUS42 KKEY 261910
RWRKEY

FLORIDA REGIONAL WEATHER ROUNDUP FOR THE FLORIDA KEYS
NATIONAL WEATHER SERVICE KEY WEST FLORIDA
300 PM EDT THU MAY 26 2016

...SOUTH FLORIDA AND THE KEYS...

CITY           SKY/WX    TMP DP  RH WIND       PRES   REMARKS
FORT MYERS     MOSUNNY   86  55  34 E9        30.04F
SW REGIONAL AP SUNNY     88  57  34 E13       30.05F
NAPLES         MOSUNNY   89  56  32 E7        30.04F
MIAMI          MOSUNNY   84  60  44 NE8       30.06F
WEST KENDALL   SUNNY     85  59  41 E8G17     30.05F
HOMESTEAD      SUNNY     83  63  50 NE10      30.05F
MARATHON       SUNNY     85  61  44 NE13      30.04F
BOCA CHICA NAS MOSUNNY   86  64  47 E13       30.03F
KEY WEST INTL  PTSUNNY   83  65  54 E7        30.04F

...INTERNATIONAL WEATHER...

CITY           SKY/WX    TMP DP  RH WIND       PRES   REMARKS
NASSAU BAHAMAS PTSUNNY   82  72  69 NE12      30.04F
CANCUN MEXICO  PTSUNNY   88  75  66 E12       29.98F HX  97
COZUMEL MEXICO PTSUNNY   84  73  70 E9        29.97F HX  91

ADJACENT COASTAL WATERS...

STATION/POSITION TIME  SKY/WX   TEMP    WIND        PRES    WAVE
                                AIR SEA DIR/SP/G            HT/PER
                 (UTC)          (F)     (DEG/KT/KT) (MB)    (FT/S)
PULASKI SHOAL LI 1900            80      80/ 10/ 11 1017.5F
SAND KEY         1850            80     100/ 12/ 14 1017.5F
SOMBRERO KEY     NOT AVBL
LONG KEY         1800            80 83   30/  8/ 11 1018.3F
MOLASSES REEF    NOT AVBL
FOWEY ROCKS      1900            79 83   70/ 13/ 15 1018.1F

$$



USA.gov is the U.S. government's official web portal to all federal, state and local government web resources and services.